Time,TemperatureF,DewpointF,PressureIn,WindDirection,WindDirectionDegrees,WindSpeedMPH,WindSpeedGustMPH,Humidity,HourlyPrecipIn,Conditions,Clouds,dailyrainin,SolarRadiationWatts/m^2,SoftwareType,DateUTC
2013-01-25 00:00:00,34.3,23.0,30.11,West,273,0.0,1.0,63,0.00,,,0.00,0,Wunderground v.1.15,2013-01-25 07:00:00,
2013-01-25 00:05:00,34.4,23.1,30.10,NW,306,2.0,12.0,63,0.00,,,0.00,0,Wunderground v.1.15,2013-01-25 07:05:00,
2013-01-25 00:11:00,34.6,22.9,30.10,NW,318,3.0,3.0,62,0.00,,,0.00,0,Wunderground v.1.15,2013-01-25 07:11:00,
2013-01-25 00:16:00,34.4,23.1,30.10,West,259,3.0,3.0,63,0.00,,,0.00,0,Wunderground v.1.15,2013-01-25 07:16:00,
2013-01-25 00:21:00,34.5,23.2,30.10,SSW,192,2.0,2.0,63,0.00,,,0.00,0,Wunderground v.1.15,2013-01-25 07:21:00,
2013-01-25 00:26:00,34.4,23.1,30.09,WNW,301,2.0,6.0,63,0.00,,,0.00,0,Wunderground v.1.15,2013-01-25 07:26:00,
2013-01-25 00:31:00,34.4,23.1,30.09,WSW,257,3.0,3.0,63,0.00,,,0.00,0,Wunderground v.1.15,2013-01-25 07:31:00,
2013-01-25 00:37:00,34.4,23.1,30.09,West,263,2.0,4.0,63,0.00,,,0.00,0,Wunderground v.1.15,2013-01-25 07:37:00,
2013-01-25 00:43:00,34.5,23.2,30.09,WNW,286,2.0,3.0,63,0.00,,,0.00,0,Wunderground v.1.15,2013-01-25 07:43:00,
2013-01-25 00:48:00,34.4,23.1,30.09,WSW,246,2.0,5.0,63,0.00,,,0.00,0,Wunderground v.1.15,2013-01-25 07:48:00,
2013-01-25 00:53:00,34.6,23.3,30.10,WNW,284,3.0,4.0,63,0.00,,,0.00,0,Wunderground v.1.15,2013-01-25 07:53:00,
2013-01-25 00:59:00,34.2,23.3,30.11,SW,227,3.0,5.0,64,0.00,,,0.00,0,Wunderground v.1.15,2013-01-25 07:59:00,
2013-01-25 01:05:00,33.6,23.1,30.11,WSW,240,2.0,8.0,65,0.00,,,0.00,0,Wunderground v.1.15,2013-01-25 08:05:00,
2013-01-25 01:11:00,33.5,23.0,30.10,WNW,290,2.0,2.0,65,0.00,,,0.00,0,Wunderground v.1.15,2013-01-25 08:11:00,
2013-01-25 01:16:00,33.4,23.3,30.10,SW,229,2.0,4.0,66,0.00,,,0.00,0,Wunderground v.1.15,2013-01-25 08:16:00,
2013-01-25 01:22:00,33.4,23.3,30.10,WSW,247,2.0,2.0,66,0.00,,,0.00,0,Wunderground v.1.15,2013-01-25 08:22:00,
2013-01-25 01:27:00,33.6,23.4,30.10,West,261,1.0,3.0,66,0.00,,,0.00,0,Wunderground v.1.15,2013-01-25 08:27:00,
2013-01-25 01:32:00,33.7,23.5,30.09,West,281,1.0,2.0,66,0.00,,,0.00,0,Wunderground v.1.15,2013-01-25 08:32:00,
2013-01-25 01:37:00,33.9,23.4,30.10,SW,225,1.0,2.0,65,0.00,,,0.00,0,Wunderground v.1.15,2013-01-25 08:37:00,
2013-01-25 01:43:00,33.5,23.0,30.10,SE,142,2.0,3.0,65,0.00,,,0.00,0,Wunderground v.1.15,2013-01-25 08:43:00,
2013-01-25 01:48:00,33.4,23.3,30.10,NW,313,2.0,5.0,66,0.00,,,0.00,0,Wunderground v.1.15,2013-01-25 08:48:00,
2013-01-25 01:54:00,33.5,23.4,30.10,SSW,213,2.0,3.0,66,0.00,,,0.00,0,Wunderground v.1.15,2013-01-25 08:54:00,
2013-01-25 01:59:00,33.5,23.4,30.10,West,270,1.0,3.0,66,0.00,,,0.00,0,Wunderground v.1.15,2013-01-25 08:59:00,
2013-01-25 02:05:00,33.3,23.2,30.10,West,269,1.0,9.0,66,0.00,,,0.00,0,Wunderground v.1.15,2013-01-25 09:05:00,
2013-01-25 02:11:00,33.1,23.0,30.10,WSW,238,1.0,2.0,66,0.00,,,0.00,0,Wunderground v.1.15,2013-01-25 09:11:00,
2013-01-25 02:16:00,32.9,23.1,30.10,WSW,238,1.0,2.0,67,0.00,,,0.00,0,Wunderground v.1.15,2013-01-25 09:16:00,
2013-01-25 02:21:00,32.8,23.0,30.11,WSW,238,1.0,2.0,67,0.00,,,0.00,0,Wunderground v.1.15,2013-01-25 09:21:00,
2013-01-25 02:27:00,32.6,22.8,30.11,WSW,238,1.0,2.0,67,0.00,,,0.00,0,Wunderground v.1.15,2013-01-25 09:27:00,
2013-01-25 02:32:00,32.5,23.1,30.11,SW,231,1.0,1.0,68,0.00,,,0.00,0,Wunderground v.1.15,2013-01-25 09:32:00,
2013-01-25 02:38:00,32.5,23.1,30.12,SW,226,1.0,2.0,68,0.00,,,0.00,0,Wunderground v.1.15,2013-01-25 09:38:00,
2013-01-25 02:43:00,32.5,23.1,30.12,SW,226,1.0,2.0,68,0.00,,,0.00,0,Wunderground v.1.15,2013-01-25 09:43:00,
2013-01-25 02:48:00,32.5,23.1,30.12,SW,227,1.0,2.0,68,0.00,,,0.00,0,Wunderground v.1.15,2013-01-25 09:48:00,
2013-01-25 02:54:00,32.6,23.2,30.13,South,180,1.0,2.0,68,0.00,,,0.00,0,Wunderground v.1.15,2013-01-25 09:54:00,
2013-01-25 03:00:00,32.7,23.3,30.13,South,179,1.0,4.0,68,0.00,,,0.00,0,Wunderground v.1.15,2013-01-25 10:00:00,
2013-01-25 03:05:00,32.7,23.3,30.13,SSE,152,3.0,7.0,68,0.00,,,0.00,0,Wunderground v.1.15,2013-01-25 10:05:00,
2013-01-25 03:11:00,32.8,23.4,30.13,SSE,150,3.0,3.0,68,0.00,,,0.00,0,Wunderground v.1.15,2013-01-25 10:11:00,
2013-01-25 03:16:00,32.8,23.4,30.13,SSE,150,1.0,3.0,68,0.00,,,0.00,0,Wunderground v.1.15,2013-01-25 10:16:00,
2013-01-25 03:21:00,32.8,23.4,30.13,SSE,150,0.0,2.0,68,0.00,,,0.00,0,Wunderground v.1.15,2013-01-25 10:21:00,
2013-01-25 03:27:00,33.0,23.2,30.13,SSE,150,0.0,2.0,67,0.00,,,0.00,0,Wunderground v.1.15,2013-01-25 10:27:00,
2013-01-25 03:32:00,33.1,23.3,30.14,SSE,150,0.0,1.0,67,0.00,,,0.00,0,Wunderground v.1.15,2013-01-25 10:32:00,
2013-01-25 03:37:00,33.2,23.4,30.14,SSE,160,0.0,1.0,67,0.00,,,0.00,0,Wunderground v.1.15,2013-01-25 10:37:00,
2013-01-25 03:43:00,33.3,23.5,30.14,SSE,161,0.0,0.0,67,0.00,,,0.00,0,Wunderground v.1.15,2013-01-25 10:43:00,
2013-01-25 03:48:00,33.3,23.5,30.13,SSE,161,0.0,1.0,67,0.00,,,0.00,0,Wunderground v.1.15,2013-01-25 10:48:00,
2013-01-25 03:54:00,33.3,23.5,30.13,South,170,1.0,2.0,67,0.00,,,0.00,0,Wunderground v.1.15,2013-01-25 10:54:00,
2013-01-25 03:59:00,33.3,23.5,30.13,South,170,1.0,3.0,67,0.00,,,0.00,0,Wunderground v.1.15,2013-01-25 10:59:00,
2013-01-25 04:04:00,33.3,23.5,30.13,South,170,1.0,4.0,67,0.00,,,0.00,0,Wunderground v.1.15,2013-01-25 11:04:00,
2013-01-25 04:10:00,33.3,23.5,30.12,West,277,1.0,2.0,67,0.00,,,0.00,0,Wunderground v.1.15,2013-01-25 11:10:00,
2013-01-25 04:16:00,33.3,23.5,30.11,West,273,2.0,5.0,67,0.00,,,0.00,0,Wunderground v.1.15,2013-01-25 11:16:00,
2013-01-25 04:21:00,33.3,23.5,30.11,WNW,303,2.0,3.0,67,0.00,,,0.00,0,Wunderground v.1.15,2013-01-25 11:21:00,
2013-01-25 04:27:00,33.2,23.8,30.11,West,275,2.0,4.0,68,0.00,,,0.00,0,Wunderground v.1.15,2013-01-25 11:27:00,
2013-01-25 04:32:00,33.2,23.8,30.12,West,275,1.0,2.0,68,0.00,,,0.00,0,Wunderground v.1.15,2013-01-25 11:32:00,
2013-01-25 04:38:00,33.1,23.7,30.12,West,267,0.0,2.0,68,0.00,,,0.00,0,Wunderground v.1.15,2013-01-25 11:38:00,
2013-01-25 04:43:00,33.1,23.7,30.12,West,267,1.0,1.0,68,0.00,,,0.00,0,Wunderground v.1.15,2013-01-25 11:43:00,
2013-01-25 04:49:00,33.2,23.8,30.12,West,267,0.0,1.0,68,0.00,,,0.00,0,Wunderground v.1.15,2013-01-25 11:49:00,
2013-01-25 04:54:00,33.2,23.4,30.12,West,267,0.0,0.0,67,0.00,,,0.00,0,Wunderground v.1.15,2013-01-25 11:54:00,
2013-01-25 04:59:00,33.3,23.5,30.12,West,267,0.0,0.0,67,0.00,,,0.00,0,Wunderground v.1.15,2013-01-25 11:59:00,
2013-01-25 05:05:00,33.3,23.5,30.12,West,267,0.0,3.0,67,0.00,,,0.00,0,Wunderground v.1.15,2013-01-25 12:05:00,
2013-01-25 05:11:00,33.2,23.4,30.12,WNW,296,1.0,2.0,67,0.00,,,0.00,0,Wunderground v.1.15,2013-01-25 12:11:00,
2013-01-25 05:16:00,33.1,23.3,30.11,WNW,296,2.0,2.0,67,0.00,,,0.00,0,Wunderground v.1.15,2013-01-25 12:16:00,
2013-01-25 05:22:00,33.0,23.2,30.11,WNW,296,1.0,2.0,67,0.00,,,0.00,0,Wunderground v.1.15,2013-01-25 12:22:00,
2013-01-25 05:28:00,32.8,23.0,30.11,WNW,297,1.0,2.0,67,0.00,,,0.00,0,Wunderground v.1.15,2013-01-25 12:28:00,
2013-01-25 05:34:00,32.7,22.9,30.11,WNW,297,0.0,1.0,67,0.00,,,0.00,0,Wunderground v.1.15,2013-01-25 12:34:00,
2013-01-25 05:39:00,32.6,23.2,30.11,WNW,297,0.0,1.0,68,0.00,,,0.00,0,Wunderground v.1.15,2013-01-25 12:39:00,
2013-01-25 05:44:00,32.6,23.2,30.11,WSW,253,1.0,3.0,68,0.00,,,0.00,0,Wunderground v.1.15,2013-01-25 12:44:00,
2013-01-25 05:49:00,32.5,23.1,30.11,SSE,159,2.0,4.0,68,0.00,,,0.00,0,Wunderground v.1.15,2013-01-25 12:49:00,
2013-01-25 05:55:00,32.5,23.1,30.12,SE,139,3.0,4.0,68,0.00,,,0.00,0,Wunderground v.1.15,2013-01-25 12:55:00,
2013-01-25 06:01:00,32.5,23.1,30.12,SSE,165,2.0,3.0,68,0.00,,,0.00,0,Wunderground v.1.15,2013-01-25 13:01:00,
2013-01-25 06:07:00,32.5,23.1,30.12,SSE,157,2.0,5.0,68,0.00,,,0.00,0,Wunderground v.1.15,2013-01-25 13:07:00,
2013-01-25 06:12:00,32.4,23.7,30.12,SSE,152,4.0,6.0,70,0.00,,,0.00,0,Wunderground v.1.15,2013-01-25 13:12:00,
2013-01-25 06:17:00,32.3,23.6,30.12,SE,143,3.0,6.0,70,0.00,,,0.00,0,Wunderground v.1.15,2013-01-25 13:17:00,
2013-01-25 06:22:00,32.3,23.6,30.12,SE,142,2.0,4.0,70,0.00,,,0.00,0,Wunderground v.1.15,2013-01-25 13:22:00,
2013-01-25 06:27:00,32.3,23.9,30.12,SE,142,3.0,4.0,71,0.00,,,0.00,0,Wunderground v.1.15,2013-01-25 13:27:00,
2013-01-25 06:33:00,32.3,23.9,30.13,SE,141,2.0,3.0,71,0.00,,,0.00,0,Wunderground v.1.15,2013-01-25 13:33:00,
2013-01-25 06:38:00,32.3,23.9,30.13,SE,142,2.0,3.0,71,0.00,,,0.00,0,Wunderground v.1.15,2013-01-25 13:38:00,
2013-01-25 06:44:00,32.3,23.9,30.14,SSE,148,3.0,4.0,71,0.00,,,0.00,0,Wunderground v.1.15,2013-01-25 13:44:00,
2013-01-25 06:49:00,32.2,23.8,30.14,SSE,148,3.0,4.0,71,0.00,,,0.00,0,Wunderground v.1.15,2013-01-25 13:49:00,
2013-01-25 06:54:00,32.1,23.4,30.14,SSE,148,3.0,3.0,70,0.00,,,0.00,0,Wunderground v.1.15,2013-01-25 13:54:00,
2013-01-25 07:00:00,32.1,23.4,30.15,SE,146,2.0,2.0,70,0.00,,,0.00,0,Wunderground v.1.15,2013-01-25 14:00:00,
2013-01-25 07:05:00,32.0,23.3,30.14,SE,146,1.0,6.0,70,0.00,,,0.00,0,Wunderground v.1.15,2013-01-25 14:05:00,
2013-01-25 07:11:00,32.1,23.4,30.14,South,181,1.0,5.0,70,0.00,,,0.00,0,Wunderground v.1.15,2013-01-25 14:11:00,
2013-01-25 07:16:00,32.2,23.8,30.14,SSE,147,2.0,5.0,71,0.00,,,0.00,0,Wunderground v.1.15,2013-01-25 14:16:00,
2013-01-25 07:22:00,32.4,24.0,30.14,SE,138,2.0,4.0,71,0.00,,,0.00,5,Wunderground v.1.15,2013-01-25 14:22:00,
2013-01-25 07:27:00,32.4,24.0,30.14,SE,138,2.0,4.0,71,0.00,,,0.00,9,Wunderground v.1.15,2013-01-25 14:27:00,
2013-01-25 07:32:00,32.5,24.1,30.15,SE,134,3.0,3.0,71,0.00,,,0.00,14,Wunderground v.1.15,2013-01-25 14:32:00,
2013-01-25 07:38:00,32.5,24.1,30.14,SE,134,2.0,3.0,71,0.00,,,0.00,19,Wunderground v.1.15,2013-01-25 14:38:00,
2013-01-25 07:44:00,32.5,24.1,30.14,SE,134,1.0,2.0,71,0.00,,,0.00,28,Wunderground v.1.15,2013-01-25 14:44:00,
2013-01-25 07:50:00,32.5,24.1,30.14,SE,134,0.0,0.0,71,0.00,,,0.00,35,Wunderground v.1.15,2013-01-25 14:50:00,
2013-01-25 07:55:00,32.5,24.1,30.14,SE,134,0.0,2.0,71,0.00,,,0.00,35,Wunderground v.1.15,2013-01-25 14:55:00,
2013-01-25 08:01:00,32.5,24.1,30.14,SE,134,0.0,5.0,71,0.00,,,0.00,46,Wunderground v.1.15,2013-01-25 15:01:00,
2013-01-25 08:06:00,32.6,24.2,30.14,SE,134,0.0,5.0,71,0.00,,,0.00,70,Wunderground v.1.15,2013-01-25 15:06:00,
2013-01-25 08:12:00,32.7,24.0,30.13,SE,134,1.0,1.0,70,0.00,,,0.00,79,Wunderground v.1.15,2013-01-25 15:12:00,
2013-01-25 08:18:00,32.8,24.1,30.13,SE,134,1.0,1.0,70,0.00,,,0.00,98,Wunderground v.1.15,2013-01-25 15:18:00,
2013-01-25 08:24:00,33.0,24.3,30.13,SE,135,0.0,1.0,70,0.00,,,0.00,102,Wunderground v.1.15,2013-01-25 15:24:00,
2013-01-25 08:29:00,33.2,24.1,30.13,SE,135,0.0,1.0,69,0.00,,,0.00,107,Wunderground v.1.15,2013-01-25 15:29:00,
2013-01-25 08:34:00,33.5,24.4,30.13,SE,134,1.0,2.0,69,0.00,,,0.00,116,Wunderground v.1.15,2013-01-25 15:34:00,
2013-01-25 08:39:00,33.8,24.7,30.13,SSE,166,1.0,2.0,69,0.00,,,0.00,127,Wunderground v.1.15,2013-01-25 15:39:00,
2013-01-25 08:44:00,34.2,24.7,30.13,South,172,1.0,2.0,68,0.00,,,0.00,123,Wunderground v.1.15,2013-01-25 15:44:00,
2013-01-25 08:50:00,34.6,25.1,30.13,SSE,160,2.0,3.0,68,0.00,,,0.00,137,Wunderground v.1.15,2013-01-25 15:50:00,
2013-01-25 08:55:00,35.0,25.5,30.13,SSE,156,3.0,3.0,68,0.00,,,0.00,144,Wunderground v.1.15,2013-01-25 15:55:00,
2013-01-25 09:00:00,35.3,25.4,30.13,South,176,2.0,2.0,67,0.00,,,0.00,144,Wunderground v.1.15,2013-01-25 16:00:00,
2013-01-25 09:05:00,35.5,25.6,30.13,SE,132,2.0,5.0,67,0.00,,,0.00,155,Wunderground v.1.15,2013-01-25 16:05:00,
2013-01-25 09:11:00,35.7,25.4,30.13,SSE,164,3.0,5.0,66,0.00,,,0.00,148,Wunderground v.1.15,2013-01-25 16:11:00,
2013-01-25 09:17:00,35.7,25.4,30.14,SSW,209,3.0,5.0,66,0.00,,,0.00,144,Wunderground v.1.15,2013-01-25 16:17:00,
2013-01-25 09:23:00,35.8,25.5,30.13,SSE,157,2.0,5.0,66,0.00,,,0.00,158,Wunderground v.1.15,2013-01-25 16:23:00,
2013-01-25 09:29:00,35.9,25.3,30.13,SSE,150,3.0,5.0,65,0.00,,,0.00,172,Wunderground v.1.15,2013-01-25 16:29:00,
2013-01-25 09:34:00,36.0,25.4,30.14,SSW,194,3.0,6.0,65,0.00,,,0.00,232,Wunderground v.1.15,2013-01-25 16:34:00,
2013-01-25 09:40:00,36.2,25.6,30.14,South,176,4.0,4.0,65,0.00,,,0.00,265,Wunderground v.1.15,2013-01-25 16:40:00,
2013-01-25 09:45:00,36.5,25.5,30.14,SSW,192,4.0,4.0,64,0.00,,,0.00,257,Wunderground v.1.15,2013-01-25 16:45:00,
2013-01-25 09:51:00,36.8,25.8,30.14,SSE,167,3.0,4.0,64,0.00,,,0.00,264,Wunderground v.1.15,2013-01-25 16:51:00,
2013-01-25 09:56:00,37.0,25.6,30.14,SSW,213,3.0,7.0,63,0.00,,,0.00,334,Wunderground v.1.15,2013-01-25 16:56:00,
2013-01-25 10:01:00,37.4,26.3,30.14,SW,217,3.0,6.0,64,0.00,,,0.00,315,Wunderground v.1.15,2013-01-25 17:01:00,
2013-01-25 10:07:00,37.7,25.8,30.15,South,169,3.0,6.0,62,0.00,,,0.00,272,Wunderground v.1.15,2013-01-25 17:07:00,
2013-01-25 10:12:00,37.9,25.6,30.15,SSE,167,4.0,5.0,61,0.00,,,0.00,241,Wunderground v.1.15,2013-01-25 17:12:00,
2013-01-25 10:17:00,37.8,25.5,30.16,SW,222,4.0,7.0,61,0.00,,,0.00,288,Wunderground v.1.15,2013-01-25 17:17:00,
2013-01-25 10:23:00,37.9,25.6,30.16,South,190,4.0,8.0,61,0.00,,,0.00,288,Wunderground v.1.15,2013-01-25 17:23:00,
2013-01-25 10:29:00,38.2,25.9,30.15,SSE,164,4.0,8.0,61,0.00,,,0.00,336,Wunderground v.1.15,2013-01-25 17:29:00,
2013-01-25 10:34:00,38.4,25.7,30.16,SSE,159,3.0,4.0,60,0.00,,,0.00,323,Wunderground v.1.15,2013-01-25 17:34:00,
2013-01-25 10:40:00,38.2,25.5,30.16,SSE,155,4.0,4.0,60,0.00,,,0.00,269,Wunderground v.1.15,2013-01-25 17:40:00,
2013-01-25 10:45:00,38.2,25.5,30.16,South,187,4.0,4.0,60,0.00,,,0.00,283,Wunderground v.1.15,2013-01-25 17:45:00,
2013-01-25 10:50:00,38.0,25.7,30.16,SSE,164,3.0,3.0,61,0.00,,,0.00,341,Wunderground v.1.15,2013-01-25 17:50:00,
2013-01-25 10:56:00,38.4,26.1,30.16,SSW,206,4.0,4.0,61,0.00,,,0.00,427,Wunderground v.1.15,2013-01-25 17:56:00,
2013-01-25 11:01:00,38.6,25.9,30.15,SSE,159,4.0,9.0,60,0.00,,,0.00,443,Wunderground v.1.15,2013-01-25 18:01:00,
2013-01-25 11:07:00,39.1,26.0,30.15,South,180,4.0,9.0,59,0.00,,,0.00,520,Wunderground v.1.15,2013-01-25 18:07:00,
2013-01-25 11:12:00,39.3,25.7,30.15,SSE,148,4.0,5.0,58,0.00,,,0.00,415,Wunderground v.1.15,2013-01-25 18:12:00,
2013-01-25 11:18:00,39.4,25.8,30.14,SSE,159,4.0,7.0,58,0.00,,,0.00,399,Wunderground v.1.15,2013-01-25 18:18:00,
2013-01-25 11:23:00,38.8,25.3,30.14,SSE,162,5.0,7.0,58,0.00,,,0.00,394,Wunderground v.1.15,2013-01-25 18:23:00,
2013-01-25 11:28:00,39.2,26.1,30.13,South,172,5.0,7.0,59,0.00,,,0.00,503,Wunderground v.1.15,2013-01-25 18:28:00,
2013-01-25 11:33:00,39.6,25.6,30.13,SSW,195,4.0,5.0,57,0.00,,,0.00,448,Wunderground v.1.15,2013-01-25 18:33:00,
2013-01-25 11:39:00,39.6,26.0,30.12,South,182,4.0,5.0,58,0.00,,,0.00,482,Wunderground v.1.15,2013-01-25 18:39:00,
2013-01-25 11:45:00,39.7,25.7,30.11,SSE,152,4.0,6.0,57,0.00,,,0.00,489,Wunderground v.1.15,2013-01-25 18:45:00,
2013-01-25 11:50:00,40.2,25.7,30.11,WSW,244,3.0,3.0,56,0.00,,,0.00,522,Wunderground v.1.15,2013-01-25 18:50:00,
2013-01-25 11:56:00,40.2,25.7,30.10,SW,221,2.0,4.0,56,0.00,,,0.00,508,Wunderground v.1.15,2013-01-25 18:56:00,
2013-01-25 12:01:00,41.1,26.1,30.10,SSE,156,3.0,4.0,55,0.00,,,0.00,584,Wunderground v.1.15,2013-01-25 19:01:00,
2013-01-25 12:07:00,41.1,27.0,30.10,SSW,203,3.0,10.0,57,0.00,,,0.00,596,Wunderground v.1.15,2013-01-25 19:07:00,
2013-01-25 12:13:00,42.1,26.6,30.10,West,260,4.0,9.0,54,0.00,,,0.00,598,Wunderground v.1.15,2013-01-25 19:13:00,
2013-01-25 12:18:00,42.6,26.6,30.10,SSE,168,4.0,9.0,53,0.00,,,0.00,580,Wunderground v.1.15,2013-01-25 19:18:00,
2013-01-25 12:23:00,43.1,26.7,30.09,SSE,153,5.0,8.0,52,0.00,,,0.00,589,Wunderground v.1.15,2013-01-25 19:23:00,
2013-01-25 12:28:00,42.3,26.4,30.09,South,173,5.0,8.0,53,0.00,,,0.00,446,Wunderground v.1.15,2013-01-25 19:28:00,
2013-01-25 12:33:00,41.9,26.4,30.09,SSW,192,4.0,7.0,54,0.00,,,0.00,501,Wunderground v.1.15,2013-01-25 19:33:00,
2013-01-25 12:38:00,42.2,26.3,30.09,SE,133,4.0,8.0,53,0.00,,,0.00,570,Wunderground v.1.15,2013-01-25 19:38:00,
2013-01-25 12:44:00,42.6,26.6,30.09,SE,130,5.0,8.0,53,0.00,,,0.00,554,Wunderground v.1.15,2013-01-25 19:44:00,
2013-01-25 12:49:00,42.8,26.4,30.08,SSE,157,5.0,8.0,52,0.00,,,0.00,577,Wunderground v.1.15,2013-01-25 19:49:00,
2013-01-25 12:55:00,43.2,26.3,30.09,SSE,167,5.0,9.0,51,0.00,,,0.00,550,Wunderground v.1.15,2013-01-25 19:55:00,
2013-01-25 13:00:00,42.9,26.0,30.08,SE,139,4.0,5.0,51,0.00,,,0.00,501,Wunderground v.1.15,2013-01-25 20:00:00,
2013-01-25 13:05:00,42.5,25.6,30.08,South,169,4.0,11.0,51,0.00,,,0.00,475,Wunderground v.1.15,2013-01-25 20:05:00,
2013-01-25 13:10:00,42.5,25.6,30.07,SE,137,6.0,6.0,51,0.00,,,0.00,540,Wunderground v.1.15,2013-01-25 20:10:00,
2013-01-25 13:16:00,41.7,24.9,30.07,ESE,121,7.0,10.0,51,0.00,,,0.00,246,Wunderground v.1.15,2013-01-25 20:16:00,
2013-01-25 13:21:00,41.6,25.3,30.07,SSE,162,7.0,7.0,52,0.00,,,0.00,234,Wunderground v.1.15,2013-01-25 20:21:00,
2013-01-25 13:26:00,40.9,24.6,30.07,SE,145,6.0,11.0,52,0.00,,,0.00,211,Wunderground v.1.15,2013-01-25 20:26:00,
2013-01-25 13:31:00,40.5,24.7,30.07,SE,137,8.0,14.0,53,0.00,,,0.00,260,Wunderground v.1.15,2013-01-25 20:31:00,
2013-01-25 13:37:00,40.4,24.1,30.06,SE,134,10.0,14.0,52,0.00,,,0.00,225,Wunderground v.1.15,2013-01-25 20:37:00,
2013-01-25 13:42:00,41.1,24.8,30.07,SSE,167,8.0,9.0,52,0.00,,,0.00,216,Wunderground v.1.15,2013-01-25 20:42:00,
2013-01-25 13:48:00,41.7,25.4,30.07,SW,224,4.0,9.0,52,0.00,,,0.00,359,Wunderground v.1.15,2013-01-25 20:48:00,
2013-01-25 13:53:00,42.0,24.7,30.07,SSE,156,5.0,16.0,50,0.00,,,0.00,221,Wunderground v.1.15,2013-01-25 20:53:00,
2013-01-25 13:59:00,41.8,24.5,30.07,SSE,150,7.0,16.0,50,0.00,,,0.00,550,Wunderground v.1.15,2013-01-25 20:59:00,
2013-01-25 14:05:00,42.2,24.4,30.07,SE,142,7.0,11.0,49,0.00,,,0.00,512,Wunderground v.1.15,2013-01-25 21:05:00,
2013-01-25 14:11:00,42.7,24.4,30.07,SE,142,6.0,6.0,48,0.00,,,0.00,336,Wunderground v.1.15,2013-01-25 21:11:00,
2013-01-25 14:16:00,42.4,24.6,30.07,SSE,161,6.0,8.0,49,0.00,,,0.00,471,Wunderground v.1.15,2013-01-25 21:16:00,
2013-01-25 14:21:00,43.1,24.7,30.07,SSE,159,6.0,6.0,48,0.00,,,0.00,510,Wunderground v.1.15,2013-01-25 21:21:00,
2013-01-25 14:27:00,42.4,24.6,30.07,SSE,157,6.0,6.0,49,0.00,,,0.00,388,Wunderground v.1.15,2013-01-25 21:27:00,
2013-01-25 14:32:00,42.6,24.3,30.06,SE,138,7.0,17.0,48,0.00,,,0.00,265,Wunderground v.1.15,2013-01-25 21:32:00,
2013-01-25 14:37:00,42.2,24.4,30.07,SSE,152,7.0,17.0,49,0.00,,,0.00,287,Wunderground v.1.15,2013-01-25 21:37:00,
2013-01-25 14:42:00,42.0,24.2,30.07,SE,128,5.0,13.0,49,0.00,,,0.00,420,Wunderground v.1.15,2013-01-25 21:42:00,
2013-01-25 14:48:00,41.6,23.8,30.07,SSE,156,6.0,13.0,49,0.00,,,0.00,218,Wunderground v.1.15,2013-01-25 21:48:00,
2013-01-25 14:53:00,41.3,24.0,30.07,SE,141,6.0,9.0,50,0.00,,,0.00,295,Wunderground v.1.15,2013-01-25 21:53:00,
2013-01-25 14:58:00,41.5,24.2,30.06,WNW,288,5.0,9.0,50,0.00,,,0.00,171,Wunderground v.1.15,2013-01-25 21:58:00,
2013-01-25 15:03:00,41.3,24.0,30.07,SSE,150,5.0,16.0,50,0.00,,,0.00,134,Wunderground v.1.15,2013-01-25 22:03:00,
2013-01-25 15:09:00,40.8,24.1,30.06,SSE,160,4.0,16.0,51,0.00,,,0.00,123,Wunderground v.1.15,2013-01-25 22:09:00,
2013-01-25 15:14:00,41.3,24.5,30.07,SSE,159,2.0,5.0,51,0.00,,,0.00,304,Wunderground v.1.15,2013-01-25 22:14:00,
2013-01-25 15:19:00,42.3,25.9,30.07,NW,319,3.0,13.0,52,0.00,,,0.00,306,Wunderground v.1.15,2013-01-25 22:19:00,
2013-01-25 15:25:00,42.9,26.0,30.07,South,182,5.0,9.0,51,0.00,,,0.00,308,Wunderground v.1.15,2013-01-25 22:25:00,
2013-01-25 15:31:00,42.9,25.5,30.07,WSW,245,4.0,5.0,50,0.00,,,0.00,309,Wunderground v.1.15,2013-01-25 22:31:00,
2013-01-25 15:36:00,41.7,24.9,30.07,WNW,303,5.0,13.0,51,0.00,,,0.00,63,Wunderground v.1.15,2013-01-25 22:36:00,
2013-01-25 15:41:00,40.6,24.8,30.07,SW,217,6.0,6.0,53,0.00,,,0.00,53,Wunderground v.1.15,2013-01-25 22:41:00,
2013-01-25 15:46:00,40.2,24.9,30.07,West,270,6.0,15.0,54,0.00,,,0.00,49,Wunderground v.1.15,2013-01-25 22:46:00,
2013-01-25 15:52:00,39.9,25.0,30.07,NW,304,5.0,6.0,55,0.00,,,0.00,40,Wunderground v.1.15,2013-01-25 22:52:00,
2013-01-25 15:57:00,39.9,25.0,30.07,WSW,254,4.0,9.0,55,0.00,,,0.00,47,Wunderground v.1.15,2013-01-25 22:57:00,
2013-01-25 16:03:00,40.0,25.1,30.07,WNW,284,5.0,18.0,55,0.00,,,0.00,63,Wunderground v.1.15,2013-01-25 23:03:00,
2013-01-25 16:09:00,40.1,25.2,30.07,West,267,5.0,18.0,55,0.00,,,0.00,107,Wunderground v.1.15,2013-01-25 23:09:00,
2013-01-25 16:15:00,40.2,24.9,30.07,NNW,329,4.0,5.0,54,0.00,,,0.00,47,Wunderground v.1.15,2013-01-25 23:15:00,
2013-01-25 16:20:00,40.1,25.2,30.07,NW,318,3.0,4.0,55,0.00,,,0.00,70,Wunderground v.1.15,2013-01-25 23:20:00,
2013-01-25 16:25:00,40.1,25.2,30.07,West,281,3.0,4.0,55,0.00,,,0.00,58,Wunderground v.1.15,2013-01-25 23:25:00,
2013-01-25 16:30:00,40.0,25.1,30.06,WNW,284,4.0,5.0,55,0.00,,,0.00,49,Wunderground v.1.15,2013-01-25 23:30:00,
2013-01-25 16:35:00,39.8,24.9,30.06,NW,317,5.0,9.0,55,0.00,,,0.00,37,Wunderground v.1.15,2013-01-25 23:35:00,
2013-01-25 16:41:00,39.8,25.4,30.07,West,275,4.0,4.0,56,0.00,,,0.00,28,Wunderground v.1.15,2013-01-25 23:41:00,
2013-01-25 16:46:00,39.6,25.2,30.07,WNW,295,4.0,7.0,56,0.00,,,0.00,21,Wunderground v.1.15,2013-01-25 23:46:00,
2013-01-25 16:51:00,39.3,24.9,30.07,WNW,292,3.0,9.0,56,0.00,,,0.00,18,Wunderground v.1.15,2013-01-25 23:51:00,
2013-01-25 16:57:00,39.2,25.2,30.07,West,281,4.0,9.0,57,0.00,,,0.00,14,Wunderground v.1.15,2013-01-25 23:57:00,
2013-01-25 17:03:00,39.0,25.0,30.07,SSW,207,3.0,15.0,57,0.00,,,0.00,14,Wunderground v.1.15,2013-01-26 00:03:00,
2013-01-25 17:09:00,38.9,24.9,30.07,WSW,245,3.0,15.0,57,0.00,,,0.00,9,Wunderground v.1.15,2013-01-26 00:09:00,
2013-01-25 17:14:00,39.1,25.1,30.07,West,276,5.0,5.0,57,0.00,,,0.00,7,Wunderground v.1.15,2013-01-26 00:14:00,
2013-01-25 17:19:00,38.9,24.9,30.07,West,281,3.0,5.0,57,0.00,,,0.00,5,Wunderground v.1.15,2013-01-26 00:19:00,
2013-01-25 17:24:00,38.6,25.1,30.07,West,272,2.0,3.0,58,0.00,,,0.00,0,Wunderground v.1.15,2013-01-26 00:24:00,
2013-01-25 17:30:00,38.4,24.9,30.07,SSW,198,2.0,2.0,58,0.00,,,0.00,0,Wunderground v.1.15,2013-01-26 00:30:00,
2013-01-25 17:35:00,38.3,24.8,30.07,South,176,2.0,4.0,58,0.00,,,0.00,0,Wunderground v.1.15,2013-01-26 00:35:00,
2013-01-25 17:41:00,38.7,24.8,30.07,WSW,246,3.0,3.0,57,0.00,,,0.00,0,Wunderground v.1.15,2013-01-26 00:41:00,
2013-01-25 17:46:00,39.0,25.0,30.07,WSW,242,3.0,4.0,57,0.00,,,0.00,0,Wunderground v.1.15,2013-01-26 00:46:00,
2013-01-25 17:52:00,38.9,24.9,30.06,South,187,2.0,3.0,57,0.00,,,0.00,0,Wunderground v.1.15,2013-01-26 00:52:00,
2013-01-25 17:57:00,38.6,24.7,30.07,SW,229,1.0,4.0,57,0.00,,,0.00,0,Wunderground v.1.15,2013-01-26 00:57:00,
2013-01-25 18:03:00,38.5,25.0,30.07,WNW,294,1.0,14.0,58,0.00,,,0.00,0,Wunderground v.1.15,2013-01-26 01:03:00,
2013-01-25 18:09:00,38.3,24.8,30.07,WNW,294,0.0,14.0,58,0.00,,,0.00,0,Wunderground v.1.15,2013-01-26 01:09:00,
2013-01-25 18:14:00,38.0,24.5,30.07,South,178,1.0,2.0,58,0.00,,,0.00,0,Wunderground v.1.15,2013-01-26 01:14:00,
2013-01-25 18:20:00,37.8,24.7,30.07,South,191,1.0,1.0,59,0.00,,,0.00,0,Wunderground v.1.15,2013-01-26 01:20:00,
2013-01-25 18:25:00,37.5,24.9,30.07,South,191,1.0,3.0,60,0.00,,,0.00,0,Wunderground v.1.15,2013-01-26 01:25:00,
2013-01-25 18:30:00,37.2,24.6,30.07,SSE,166,1.0,3.0,60,0.00,,,0.00,0,Wunderground v.1.15,2013-01-26 01:30:00,
2013-01-25 18:36:00,36.6,24.0,30.07,SSE,148,3.0,5.0,60,0.00,,,0.00,0,Wunderground v.1.15,2013-01-26 01:36:00,
2013-01-25 18:41:00,36.1,23.9,30.07,SSE,148,3.0,3.0,61,0.00,,,0.00,0,Wunderground v.1.15,2013-01-26 01:41:00,
2013-01-25 18:46:00,35.7,23.9,30.07,SSE,147,3.0,5.0,62,0.00,,,0.00,0,Wunderground v.1.15,2013-01-26 01:46:00,
2013-01-25 18:51:00,35.7,23.9,30.08,SSE,150,2.0,3.0,62,0.00,,,0.00,0,Wunderground v.1.15,2013-01-26 01:51:00,
2013-01-25 18:57:00,35.8,24.0,30.08,SSE,149,2.0,3.0,62,0.00,,,0.00,0,Wunderground v.1.15,2013-01-26 01:57:00,
2013-01-25 19:02:00,35.6,23.9,30.08,SSE,150,2.0,8.0,62,0.00,,,0.00,0,Wunderground v.1.15,2013-01-26 02:02:00,
2013-01-25 19:08:00,35.6,24.2,30.08,SSE,150,1.0,8.0,63,0.00,,,0.00,0,Wunderground v.1.15,2013-01-26 02:08:00,
2013-01-25 19:13:00,35.9,24.5,30.08,West,277,1.0,2.0,63,0.00,,,0.00,0,Wunderground v.1.15,2013-01-26 02:13:00,
2013-01-25 19:19:00,36.1,24.7,30.08,WSW,241,0.0,3.0,63,0.00,,,0.00,0,Wunderground v.1.15,2013-01-26 02:19:00,
2013-01-25 19:24:00,36.0,24.6,30.08,WSW,241,1.0,2.0,63,0.00,,,0.00,0,Wunderground v.1.15,2013-01-26 02:24:00,
2013-01-25 19:29:00,36.1,25.1,30.08,WSW,241,1.0,2.0,64,0.00,,,0.00,0,Wunderground v.1.15,2013-01-26 02:29:00,
2013-01-25 19:34:00,36.3,24.9,30.08,WSW,241,0.0,2.0,63,0.00,,,0.00,0,Wunderground v.1.15,2013-01-26 02:34:00,
2013-01-25 19:39:00,36.5,25.5,30.08,SW,223,1.0,2.0,64,0.00,,,0.00,0,Wunderground v.1.15,2013-01-26 02:39:00,
2013-01-25 19:44:00,36.6,25.6,30.08,SW,234,1.0,3.0,64,0.00,,,0.00,0,Wunderground v.1.15,2013-01-26 02:44:00,
2013-01-25 19:50:00,36.8,25.8,30.08,WSW,253,1.0,1.0,64,0.00,,,0.00,0,Wunderground v.1.15,2013-01-26 02:50:00,
2013-01-25 19:55:00,37.0,25.9,30.08,West,265,2.0,5.0,64,0.00,,,0.00,0,Wunderground v.1.15,2013-01-26 02:55:00,
2013-01-25 20:00:00,37.0,25.9,30.08,WSW,248,2.0,2.0,64,0.00,,,0.00,0,Wunderground v.1.15,2013-01-26 03:00:00,
2013-01-25 20:05:00,37.0,25.9,30.08,WSW,242,1.0,6.0,64,0.00,,,0.00,0,Wunderground v.1.15,2013-01-26 03:05:00,
2013-01-25 20:11:00,37.1,26.0,30.08,WSW,240,1.0,2.0,64,0.00,,,0.00,0,Wunderground v.1.15,2013-01-26 03:11:00,
2013-01-25 20:17:00,37.1,26.0,30.08,SW,234,2.0,3.0,64,0.00,,,0.00,0,Wunderground v.1.15,2013-01-26 03:17:00,
2013-01-25 20:22:00,37.1,25.7,30.07,SW,230,2.0,3.0,63,0.00,,,0.00,0,Wunderground v.1.15,2013-01-26 03:22:00,
2013-01-25 20:28:00,36.9,25.9,30.07,West,274,2.0,3.0,64,0.00,,,0.00,0,Wunderground v.1.15,2013-01-26 03:28:00,
2013-01-25 20:33:00,36.7,25.7,30.07,SW,227,1.0,2.0,64,0.00,,,0.00,0,Wunderground v.1.15,2013-01-26 03:33:00,
2013-01-25 20:39:00,36.6,25.6,30.06,South,174,1.0,3.0,64,0.00,,,0.00,0,Wunderground v.1.15,2013-01-26 03:39:00,
2013-01-25 20:44:00,36.5,25.5,30.06,SW,221,1.0,3.0,64,0.00,,,0.00,0,Wunderground v.1.15,2013-01-26 03:44:00,
2013-01-25 20:49:00,36.4,25.4,30.06,SE,141,1.0,4.0,64,0.00,,,0.00,0,Wunderground v.1.15,2013-01-26 03:49:00,
2013-01-25 20:55:00,36.1,25.1,30.07,SE,141,2.0,5.0,64,0.00,,,0.00,0,Wunderground v.1.15,2013-01-26 03:55:00,
2013-01-25 21:00:00,35.9,25.3,30.07,WSW,250,3.0,3.0,65,0.00,,,0.00,0,Wunderground v.1.15,2013-01-26 04:00:00,
2013-01-25 21:05:00,36.0,25.4,30.07,WSW,248,2.0,5.0,65,0.00,,,0.00,0,Wunderground v.1.15,2013-01-26 04:05:00,
2013-01-25 21:11:00,36.0,25.0,30.08,South,171,1.0,8.0,64,0.00,,,0.00,0,Wunderground v.1.15,2013-01-26 04:11:00,
2013-01-25 21:17:00,35.9,24.9,30.08,WNW,296,3.0,8.0,64,0.00,,,0.00,0,Wunderground v.1.15,2013-01-26 04:17:00,
2013-01-25 21:23:00,36.0,25.0,30.08,SE,143,3.0,6.0,64,0.00,,,0.00,0,Wunderground v.1.15,2013-01-26 04:23:00,
2013-01-25 21:29:00,35.6,25.0,30.08,South,171,3.0,6.0,65,0.00,,,0.00,0,Wunderground v.1.15,2013-01-26 04:29:00,
2013-01-25 21:34:00,35.2,24.6,30.08,SSE,157,2.0,4.0,65,0.00,,,0.00,0,Wunderground v.1.15,2013-01-26 04:34:00,
2013-01-25 21:39:00,35.0,24.4,30.09,SSW,198,2.0,4.0,65,0.00,,,0.00,0,Wunderground v.1.15,2013-01-26 04:39:00,
2013-01-25 21:44:00,34.8,24.6,30.08,South,177,2.0,3.0,66,0.00,,,0.00,0,Wunderground v.1.15,2013-01-26 04:44:00,
2013-01-25 21:50:00,34.4,24.2,30.09,SSE,165,2.0,2.0,66,0.00,,,0.00,0,Wunderground v.1.15,2013-01-26 04:50:00,
2013-01-25 21:55:00,35.1,24.5,30.09,SSW,203,2.0,3.0,65,0.00,,,0.00,0,Wunderground v.1.15,2013-01-26 04:55:00,
2013-01-25 22:01:00,35.5,24.1,30.08,South,169,2.0,8.0,63,0.00,,,0.00,0,Wunderground v.1.15,2013-01-26 05:01:00,
2013-01-25 22:02:00,35.4,24.0,30.08,South,178,2.0,8.0,63,0.00,,,0.00,0,Wunderground v.1.15,2013-01-26 05:02:00,
2013-01-25 22:06:00,35.3,24.0,30.09,West,275,2.0,8.0,63,0.00,,,0.00,0,Wunderground v.1.15,2013-01-26 05:06:00,
2013-01-25 22:09:00,35.3,24.0,30.08,SSE,155,2.0,8.0,63,0.00,,,0.00,0,Wunderground v.1.15,2013-01-26 05:09:00,
2013-01-25 22:15:00,35.2,23.9,30.08,South,184,2.0,4.0,63,0.00,,,0.00,0,Wunderground v.1.15,2013-01-26 05:15:00,
2013-01-25 22:20:00,34.8,23.9,30.08,SSE,167,2.0,3.0,64,0.00,,,0.00,0,Wunderground v.1.15,2013-01-26 05:20:00,
2013-01-25 22:25:00,34.7,23.8,30.08,SSE,164,2.0,4.0,64,0.00,,,0.00,0,Wunderground v.1.15,2013-01-26 05:25:00,
2013-01-25 22:31:00,34.9,23.6,30.08,South,173,1.0,2.0,63,0.00,,,0.00,0,Wunderground v.1.15,2013-01-26 05:31:00,
2013-01-25 22:36:00,35.2,23.5,30.08,SW,232,2.0,5.0,62,0.00,,,0.00,0,Wunderground v.1.15,2013-01-26 05:36:00,
2013-01-25 22:41:00,35.2,23.1,30.08,West,269,2.0,3.0,61,0.00,,,0.00,0,Wunderground v.1.15,2013-01-26 05:41:00,
2013-01-25 22:46:00,35.2,23.1,30.08,SSE,164,1.0,3.0,61,0.00,,,0.00,0,Wunderground v.1.15,2013-01-26 05:46:00,
2013-01-25 22:52:00,34.6,22.9,30.08,SSE,163,1.0,2.0,62,0.00,,,0.00,0,Wunderground v.1.15,2013-01-26 05:52:00,
2013-01-25 22:58:00,34.2,22.9,30.08,SSE,164,2.0,3.0,63,0.00,,,0.00,0,Wunderground v.1.15,2013-01-26 05:58:00,
2013-01-25 23:04:00,33.7,23.2,30.08,SSE,164,1.0,9.0,65,0.00,,,0.00,0,Wunderground v.1.15,2013-01-26 06:04:00,
2013-01-25 23:10:00,33.6,23.1,30.08,SSE,164,0.0,0.0,65,0.00,,,0.00,0,Wunderground v.1.15,2013-01-26 06:10:00,
2013-01-25 23:15:00,33.9,23.0,30.08,SSE,164,1.0,1.0,64,0.00,,,0.00,0,Wunderground v.1.15,2013-01-26 06:15:00,
2013-01-25 23:20:00,33.6,22.7,30.08,SSE,164,1.0,1.0,64,0.00,,,0.00,0,Wunderground v.1.15,2013-01-26 06:20:00,
2013-01-25 23:25:00,33.4,22.5,30.08,SSE,164,1.0,2.0,64,0.00,,,0.00,0,Wunderground v.1.15,2013-01-26 06:25:00,
2013-01-25 23:31:00,33.2,22.7,30.08,SSE,164,1.0,1.0,65,0.00,,,0.00,0,Wunderground v.1.15,2013-01-26 06:31:00,
2013-01-25 23:36:00,33.7,22.8,30.07,SSE,164,0.0,1.0,64,0.00,,,0.00,0,Wunderground v.1.15,2013-01-26 06:36:00,
2013-01-25 23:42:00,34.1,22.4,30.07,SSE,167,0.0,2.0,62,0.00,,,0.00,0,Wunderground v.1.15,2013-01-26 06:42:00,
2013-01-25 23:47:00,34.4,21.9,30.07,SSE,168,1.0,2.0,60,0.00,,,0.00,0,Wunderground v.1.15,2013-01-26 06:47:00,
2013-01-25 23:53:00,34.4,21.9,30.07,WSW,242,1.0,1.0,60,0.00,,,0.00,0,Wunderground v.1.15,2013-01-26 06:53:00,
2013-01-25 23:58:00,34.4,21.5,30.07,West,261,1.0,4.0,59,0.00,,,0.00,0,Wunderground v.1.15,2013-01-26 06:58:00,